Weather History for KMDH - October, 2010

Change the Weather History Date:

Monday, October 25, 2010

  Actual Average Record
Temperature  
Mean Temperature 68 °F -  
Max Temperature 75 °F 66 °F 89 °F (1940)
Min Temperature 62 °F 41 °F 20 °F (1981)
Cooling Degree Days 2    
Growing Degree Days 18 (Base 50)    
Moisture  
Dew Point 59 °F    
Average Humidity 72    
Maximum Humidity 90    
Minimum Humidity 55    
Precipitation  
Precipitation 0.00 in - - ()
Sea Level Pressure  
Sea Level Pressure 29.60 in    
Wind  
Wind Speed 13 mph (South)    
Max Wind Speed 25 mph    
Max Gust Speed 34 mph    
Visibility 10 miles    
Events      
Averages and records for this station are not official NWS values.
T = Trace of Precipitation, MM = Missing Value Source: NWS Daily Summary

Daily Weather History Graph

Daily Weather History Graph

Search for Another Location

Airport or City:

Trip Planner

Search our weather history database for the weather conditions in past years. The results will help you decide how hot, cold, wet, or windy it might be!

Date:

Astronomy

Oct. 25, 2010 Rise Set
Actual Time 7:15 AM CDT 6:06 PM CDT
Civil Twilight 6:48 AM CDT 6:33 PM CDT
Nautical Twilight 6:17 AM CDT 7:03 PM CDT
Astronomical Twilight 5:47 AM CDT 7:34 PM CDT
Moon 7:38 PM CDT (10/25) 9:53 AM CDT (10/25)
Length of Visible Light 11h 44m
Length of Day
10h 51m
Waning Gibbous, 93% of the Moon is Illuminated
Oct 25
Waning Gibbous
Oct 30
Last Quarter
Nov 5
New
Nov 13
First Quarter
Nov 21
Full

Hourly Weather History & Observations

Time (CDT) Temp. Dew Point Humidity Pressure Visibility Wind Dir Wind Speed Gust Speed Precip Events Conditions
12:00 AM 69.8 °F 62.6 °F 78% 29.71 in 10.0 mi South 10.4 mph - N/A   Mostly Cloudy
12:29 AM 66.2 °F 62.6 °F 88% 29.71 in 10.0 mi South 9.2 mph - N/A   Scattered Clouds
12:52 AM 66.0 °F 62.1 °F 87% 29.70 in 10.0 mi SSW 9.2 mph - N/A   Partly Cloudy
1:52 AM 66.0 °F 62.1 °F 87% 29.69 in 10.0 mi South 6.9 mph - N/A   Partly Cloudy
2:52 AM 64.9 °F 61.0 °F 87% 29.68 in 10.0 mi SSW 5.8 mph - N/A   Partly Cloudy
3:52 AM 64.9 °F 59.0 °F 81% 29.66 in 10.0 mi South 8.1 mph - N/A   Scattered Clouds
4:52 AM 62.1 °F 59.0 °F 90% 29.65 in 10.0 mi South 8.1 mph - N/A   Partly Cloudy
5:52 AM 64.0 °F 59.0 °F 84% 29.67 in 10.0 mi South 9.2 mph - N/A   Mostly Cloudy
6:01 AM 64.4 °F 57.2 °F 77% 29.67 in 10.0 mi South 10.4 mph - N/A   Mostly Cloudy
6:29 AM 62.6 °F 57.2 °F 82% 29.68 in 10.0 mi SSW 13.8 mph - N/A   Mostly Cloudy
6:52 AM 63.0 °F 55.9 °F 78% 29.68 in 10.0 mi SSW 11.5 mph - N/A   Mostly Cloudy
7:04 AM 64.4 °F 55.4 °F 73% 29.68 in 10.0 mi SSW 12.7 mph - N/A   Mostly Cloudy
7:15 AM 64.4 °F 55.4 °F 73% 29.68 in 10.0 mi SSW 12.7 mph - N/A   Mostly Cloudy
7:41 AM 64.4 °F 55.4 °F 73% 29.69 in 10.0 mi South 13.8 mph - N/A   Mostly Cloudy
7:52 AM 64.0 °F 55.9 °F 75% 29.69 in 10.0 mi South 15.0 mph - N/A   Mostly Cloudy
8:52 AM 64.0 °F 57.0 °F 78% 29.69 in 10.0 mi South 12.7 mph - N/A   Overcast
9:20 AM 66.2 °F 57.2 °F 73% 29.69 in 10.0 mi South 16.1 mph - N/A   Mostly Cloudy
9:52 AM 68.0 °F 55.9 °F 65% 29.67 in 10.0 mi South 12.7 mph 19.6 mph N/A   Partly Cloudy
10:52 AM 72.0 °F 55.0 °F 55% 29.66 in 10.0 mi South 15.0 mph 21.9 mph N/A   Clear
11:22 AM 73.4 °F 57.2 °F 57% 29.67 in 10.0 mi SSW 24.2 mph 29.9 mph N/A   Mostly Cloudy
11:52 AM 71.1 °F 57.0 °F 61% 29.65 in 10.0 mi South 17.3 mph 26.5 mph N/A   Overcast
12:52 PM 72.0 °F 57.9 °F 61% 29.62 in 10.0 mi SSW 20.7 mph 26.5 mph N/A   Mostly Cloudy
1:34 PM 73.4 °F 59.0 °F 61% 29.60 in 10.0 mi South 19.6 mph 27.6 mph N/A   Scattered Clouds
1:52 PM 73.0 °F 59.0 °F 61% 29.59 in 10.0 mi South 15.0 mph 28.8 mph N/A   Scattered Clouds
2:12 PM 71.6 °F 59.0 °F 64% 29.59 in 10.0 mi South 21.9 mph 31.1 mph N/A   Mostly Cloudy
2:47 PM 71.6 °F 59.0 °F 64% 29.58 in 10.0 mi South 17.3 mph 25.3 mph N/A   Mostly Cloudy
2:52 PM 72.0 °F 59.0 °F 64% 29.57 in 10.0 mi South 17.3 mph 25.3 mph N/A   Mostly Cloudy
3:52 PM 72.0 °F 60.1 °F 66% 29.54 in 10.0 mi South 18.4 mph 27.6 mph N/A   Partly Cloudy
4:44 PM 71.6 °F 60.8 °F 69% 29.53 in 10.0 mi South 13.8 mph 25.3 mph N/A   Mostly Cloudy
4:52 PM 72.0 °F 61.0 °F 68% 29.52 in 10.0 mi South 16.1 mph 26.5 mph N/A   Mostly Cloudy
5:00 PM 71.6 °F 60.8 °F 69% 29.53 in 10.0 mi South 19.6 mph 29.9 mph N/A   Mostly Cloudy
5:52 PM 71.1 °F 62.1 °F 73% 29.50 in 10.0 mi SSE 15.0 mph 26.5 mph N/A   Mostly Cloudy
6:48 PM 71.6 °F 62.6 °F 73% 29.48 in 10.0 mi South 17.3 mph 27.6 mph N/A   Scattered Clouds
6:52 PM 71.1 °F 62.1 °F 73% 29.47 in 10.0 mi South 21.9 mph 26.5 mph N/A   Scattered Clouds
7:25 PM 71.6 °F 62.6 °F 73% 29.48 in 10.0 mi South 20.7 mph 27.6 mph N/A   Mostly Cloudy
7:36 PM 71.6 °F 62.6 °F 73% 29.48 in 10.0 mi SSE 21.9 mph 27.6 mph N/A   Mostly Cloudy
7:52 PM 71.1 °F 62.1 °F 73% 29.47 in 10.0 mi SSE 17.3 mph 26.5 mph N/A   Scattered Clouds
8:52 PM 71.1 °F 62.1 °F 73% 29.45 in 10.0 mi SSE 24.2 mph 31.1 mph N/A   Partly Cloudy
9:52 PM 71.1 °F 62.1 °F 73% 29.45 in 10.0 mi South 13.8 mph 23.0 mph N/A   Scattered Clouds
10:52 PM 72.0 °F 61.0 °F 68% 29.42 in 10.0 mi South 20.7 mph 24.2 mph N/A   Partly Cloudy
11:52 PM 73.9 °F 61.0 °F 64% 29.39 in 10.0 mi South 25.3 mph 34.5 mph N/A   Mostly Cloudy